Location: Boursonne
(49.2024°N, 3.0468°E)
Time: 07:47:48
(UTC+00:00)

H-2A R/B - Pass Details

Date: 03 March 2021
Orbit: 577 x 654 km, 98.5° (Epoch: 12 April)

Event Time Altitude Azimuth Distance (km) Brightness Sun altitude
Rises 18:30:35 0° 5° (N) 2,810 5.4 -10.0°
Reaches altitude 10° 18:32:57 10° 354° (N) 1,903 4.7 -10.4°
Maximum altitude 18:36:28 28° 295° (WNW) 1,104 4.2 -10.9°
Drops below altitude 10° 18:39:58 10° 237° (WSW) 1,895 5.4 -11.5°
Sets 18:42:20 0° 225° (SW) 2,796 6.1 -11.9°
